THORAD DELTA 1 DEB, 8185

Orbit data source: Space-Track

THORAD DELTA 1 DEB, 8185 is space debris in SSO originally from a launch on Fri, 15 Nov 1974 UTC launched from the Air Force Western Test Range (AFWTR). Debris objects in space refer to the collection of defunct objects orbiting the Earth. Examples of debris include non-operational satellites, rocket bodies, and fragments generated from explosions, collisions, or faulty payload assembly.

Loading next visibility...
Identifier
8185, 1974-089BB
Orbit
SSO
Country
Flag of USUS
Related business
Manufacturer
Unknown
Mission
Spacecraft
Bus & Motor
Unknown
Mass
Unknown
Launch date (UTC)
1974-11-15 (52 years ago)
Launch vehicle
Unknown
Launch site
Air Force Western Test Range (AFWTR)
Object type
Payload
Rocket body
Debris
Shape & HBR
Unknown shape, 0.4 m
Radar Cross Section
Medium (>0.1 m² and <1 m²)

Expand to show TLE details & history
Last TLE update: 6 hours ago

TLE from 6 hours ago
0 THORAD DELTA 1 DEB
1 08185U 74089BB  26170.24109898  .00000027  00000-0  50762-3 0  9999
2 08185 101.5377  89.8333 0068667 149.9852   5.4372 12.40518088335013
Epoch: 2026-06-19T05:47Z
TLE epoch observation values (Epoch: 2026-06-19T05:47:10.951Z)
Latitude
24.00003°
Longitude
-79.24628°
Altitude
1,453.118 km
Speed
7.162 km/s
True Right ascension
18h 20m 05s
True Declination
23° 53' 02"
Sunlit
Object was in full shadow at epoch
Visualization orbit readout
Latitude
Unknown
Longitude
Unknown
Altitude
Unknown
Speed
Unknown
Apparent Right ascension
Unknown
Apparent Declination
Unknown
Sunlit
N/A
Visualization observer readout
Local Sidereal Time
22:59:23
Azimuth
Unknown
Elevation
Unknown
Doppler factor
Unknown
Orbital elements
Apogee altitude
1,556.065 km
Perigee altitude
1,447.844 km
Semi-major axis
7,880.092 km
Eccentricity
0.00687
Inclination
101.5377°
RAAN
89.8333°
Arg. of periapsis
149.9852°
True anomaly
5.5124°
Mean anomaly
5.4372°
Eccentric anomaly
5.47474°
Mean motion
3.10275 °/min
Orbital period
116.03 mins
BSTAR
0.00050762
Loading maneuver chart data...
Computing Atmospheric mass density...
Loading historical data...
Loading historical data...
Loading historical data...
Loading historical data...
Loading historical data...
Loading historical data...
Loading historical data...

Documentation

Showing up to 5 results
|